Погода в Гвардейском

Россия / Санкт-Петербург и Ленинградская область     60°47′56″N   28°57′42″E
темп.,
°C
ветер,
м/с
пор.,
м/с
влажн.,
%
обл.,
%
осадки,
мм/ч
давл.,
гПа
погр.,
м
28 февраля, вс
вс2800:00−2зюз229499 0.0 101841
03:00−2зюз3797100 0.3 1015310
06:00+1з31098100 1.3 1013381
09:00+2зсз3998100 1.3 1013413
12:00+2сз3997100 0.0 1014474
15:00+3сз379385 0.0 1017543
18:00+1сз279541 0.0 1018254
21:00+1зсз139666 0.0 101962
1 марта, пн
пн100:00−1зюз239648 0.0 101971
03:00−1зюз279752 0.0 1019157
06:00−1з3109570 0.0 1018326
09:00+1з4119171 0.0 1018543
12:00+4з41480100 0.0 1016871
15:00+4зюз51379100 0.0 1014711
18:00+3зюз41285100 0.0 1011626
21:00+2з3138786 0.1 1011833
2 марта, вт
вт200:000зсз3158633 0.0 1012731
03:000зсз3148317 0.0 1012770
06:00−1зсз314830 0.0 1012741
09:00−1сз414820 0.0 1014607
12:00+2сз511710 0.0 1015958
15:00+3сз410730 0.0 10161030
18:00+1сз312830 0.0 1017603
21:00−1зсз311890 0.0 1019374
3 марта, ср
ср300:00−1зсз311840 0.0 1020459
03:00−2сз310886 0.0 1020335
06:00−3зсз399314 0.0 1020300
09:00−3зсз279511 0.0 1020262
12:000з25820 0.0 1020366
15:00+2зюз47780 0.0 1017559
18:000зюз4108644 0.0 1014455
21:00+1зюз5149068 0.0 1011775
4 марта, чт
чт400:00+1зюз51587100 0.0 1007742
03:00+1зюз51489100 0.0 1003693
06:00+1з51288100 0.0 1001936
09:00−1сз51167100 0.4 1001865
12:00−2ссз610660 0.0 1002934
15:00−2ссз586930 0.0 10041048
18:00−2ссз4769100 0.0 10041074
21:00−5с496491 0.0 10061122